Location: Chino
(34.0122°N, 117.6889°W)
Time: 13:38:00
(UTC+00:00)

Meteor 2-21 Rocket - Pass Details

Date: 13 February 2026
Orbit: 935 x 968 km, 82.6° (Epoch: 12 March)

Event Time Altitude Azimuth Distance (km) Brightness Sun altitude
Rises 12:47:04 0° 347° (NNW) 3,630 7.4 -23.4°
Reaches altitude 10° 12:49:38 10° 342° (NNW) 2,676 6.6 -22.9°
Maximum altitude 12:55:30 52° 269° (W) 1,164 4.5 -21.6°
Drops below altitude 10° 13:01:19 10° 194° (SSW) 2,642 6.6 -20.4°
Sets 13:03:51 0° 189° (S) 3,579 7.4 -19.9°
